TimeMST,TemperatureF,Dew PointF,Humidity,Sea Level PressureIn,VisibilityMPH,Wind Direction,Wind SpeedMPH,Gust SpeedMPH,PrecipitationIn,Events,Conditions,WindDirDegrees,DateUTC
12:56 AM,48.9,21.0,33,29.46,-9999.0,West,13.8,-,N/A,,Unknown,270,2013-12-03 07:56:00
1:56 AM,45.0,21.0,39,29.48,-9999.0,West,10.4,-,N/A,,Unknown,260,2013-12-03 08:56:00
2:56 AM,44.1,21.0,40,29.47,-9999.0,West,12.7,-,N/A,,Unknown,270,2013-12-03 09:56:00
3:56 AM,35.1,21.9,59,29.50,-9999.0,West,9.2,-,N/A,,Unknown,270,2013-12-03 10:56:00
4:56 AM,37.9,21.9,53,29.49,-9999.0,West,11.5,-,N/A,,Unknown,270,2013-12-03 11:56:00
5:56 AM,35.1,21.9,59,29.53,-9999.0,West,8.1,-,N/A,,Unknown,280,2013-12-03 12:56:00
6:56 AM,34.0,21.0,59,29.55,-9999.0,West,5.8,-,N/A,,Unknown,260,2013-12-03 13:56:00
7:56 AM,46.0,21.9,39,29.50,-9999.0,WSW,11.5,-,N/A,,Unknown,240,2013-12-03 14:56:00
8:56 AM,55.0,21.9,28,29.49,-9999.0,WSW,10.4,-,N/A,,Unknown,240,2013-12-03 15:56:00
9:56 AM,61.0,21.0,21,29.48,-9999.0,SW,9.2,-,N/A,,Unknown,230,2013-12-03 16:56:00
10:56 AM,64.9,17.1,16,29.43,-9999.0,SW,15.0,-,N/A,,Unknown,220,2013-12-03 17:56:00
11:56 AM,68.0,15.1,13,29.38,-9999.0,WSW,12.7,19.6,N/A,,Unknown,250,2013-12-03 18:56:00
12:56 PM,68.0,16.0,14,29.35,-9999.0,SSW,12.7,18.4,N/A,,Unknown,210,2013-12-03 19:56:00
1:56 PM,69.1,16.0,13,29.33,-9999.0,Variable,6.9,-,N/A,,Unknown,0,2013-12-03 20:56:00
2:56 PM,66.0,18.0,16,29.34,-9999.0,South,15.0,-,N/A,,Unknown,190,2013-12-03 21:56:00
3:56 PM,59.0,19.9,22,29.37,-9999.0,SSW,10.4,-,N/A,,Unknown,200,2013-12-03 22:56:00
4:56 PM,54.0,19.9,26,29.37,-9999.0,South,10.4,-,N/A,,Unknown,180,2013-12-03 23:56:00
5:56 PM,51.1,21.0,31,29.39,-9999.0,SSW,11.5,-,N/A,,Unknown,200,2013-12-04 00:56:00
6:56 PM,45.0,23.0,42,29.42,-9999.0,WNW,9.2,-,N/A,,Unknown,290,2013-12-04 01:56:00
7:56 PM,45.0,24.1,44,29.43,-9999.0,NW,19.6,26.5,N/A,,Unknown,320,2013-12-04 02:56:00
8:56 PM,33.1,28.0,82,29.52,-9999.0,North,16.1,32.2,N/A,,Unknown,360,2013-12-04 03:56:00
9:56 PM,32.0,28.0,85,29.52,-9999.0,North,23.0,29.9,N/A,,Unknown,10,2013-12-04 04:56:00
10:56 PM,28.9,27.0,92,29.52,-9999.0,North,19.6,29.9,N/A,,Unknown,10,2013-12-04 05:56:00
11:56 PM,26.1,23.0,88,29.56,-9999.0,North,24.2,28.8,N/A,,Unknown,360,2013-12-04 06:56:00